Olean, NY

10:50 AM EST on December 16, 2017 (GMT -0500)
Cattaraugus County-Olean

Weather History for KOLE - January, 2014

Change the Weather History Date:

Sunday, January 12, 2014

  Actual Average (KBFD) Record (KBFD)
Temperature  
Mean Temperature 28 °F -  
Max Temperature 30 °F 25 °F 56 °F (2017)
Min Temperature 26 °F 11 °F -15 °F (1981)
Degree Days  
Heating Degree Days 37    
Moisture  
Dew Point 26 °F    
Average Humidity 89    
Maximum Humidity 100    
Minimum Humidity 80    
Precipitation  
Precipitation 0.00 in - - ()
Sea Level Pressure  
Sea Level Pressure 29.76 in    
Wind  
Wind Speed 10 mph (WSW)    
Max Wind Speed 16 mph    
Max Gust Speed 34 mph    
Visibility 8 miles    
Events Snow    
Averages and records for this station are not official NWS values.
T = Trace of Precipitation, MM = Missing Value Source: NWS Daily Summary

Daily Weather History Graph

Daily Weather History Graph

Search for Another Location

Airport or City:

Trip Planner

Search our weather history database for the weather conditions in past years. The results will help you decide how hot, cold, wet, or windy it might be!

Date:

Astronomy

Jan. 12, 2014 Rise Set
Actual Time 7:40 AM EST 5:03 PM EST
Civil Twilight 7:09 AM EST 5:34 PM EST
Nautical Twilight 6:34 AM EST 6:09 PM EST
Astronomical Twilight 6:01 AM EST 6:42 PM EST
Moon 2:29 PM EST (1/12) 4:37 AM EST (1/12)
Length of Visible Light 10h 24m
Length of Day
9h 22m
Waxing Gibbous, 89% of the Moon is Illuminated
Jan 12
Waxing Gibbous
Jan 15
Full
Jan 24
Last Quarter
Jan 30
New
Feb 6
First Quarter

Hourly Weather History & Observations

Time (EST) Temp. Windchill Dew Point Humidity Pressure Visibility Wind Dir Wind Speed Gust Speed Precip Events Conditions
12:15 AM 30.2 °F 18.9 °F 30.2 °F 100% 29.46 in 4.0 mi West 16.1 mph 28.8 mph N/A   Overcast
12:35 AM 30.2 °F 20.2 °F 28.4 °F 93% 29.47 in 3.0 mi West 12.7 mph 34.5 mph N/A Snow Light Snow
12:55 AM 30.2 °F 21.9 °F 28.4 °F 93% 29.48 in 4.0 mi West 9.2 mph 26.5 mph N/A   Overcast
1:15 AM 30.2 °F 22.6 °F 28.4 °F 93% 29.49 in 5.0 mi West 8.1 mph - N/A   Overcast
1:35 AM 30.2 °F 23.4 °F 28.4 °F 93% 29.50 in 4.0 mi WNW 6.9 mph 16.1 mph N/A Snow Light Snow
1:55 AM 30.2 °F 26.7 °F 28.4 °F 93% 29.51 in 3.0 mi West 3.5 mph - N/A Snow Light Snow
2:15 AM 30.2 °F 22.6 °F 28.4 °F 93% 29.52 in 2.0 mi West 8.1 mph - N/A Snow Light Snow
2:35 AM 30.2 °F 20.8 °F 28.4 °F 93% 29.53 in 1.5 mi West 11.5 mph 23.0 mph N/A Snow Light Snow
2:55 AM 30.2 °F 20.2 °F 28.4 °F 93% 29.55 in 7.0 mi WSW 12.7 mph 23.0 mph N/A   Overcast
3:15 AM 30.2 °F 21.3 °F 26.6 °F 86% 29.55 in 10.0 mi West 10.4 mph 26.5 mph N/A   Overcast
3:35 AM 30.2 °F 23.4 °F 28.4 °F 93% 29.56 in 7.0 mi West 6.9 mph 18.4 mph N/A   Overcast
3:55 AM 30.2 °F 19.3 °F 26.6 °F 86% 29.57 in 7.0 mi West 15.0 mph 23.0 mph N/A   Overcast
4:15 AM 30.2 °F 20.8 °F 26.6 °F 86% 29.58 in 7.0 mi West 11.5 mph 20.7 mph N/A   Overcast
4:35 AM 30.2 °F 21.9 °F 26.6 °F 86% 29.59 in 7.0 mi West 9.2 mph 24.2 mph N/A   Overcast
4:55 AM 30.2 °F 20.8 °F 26.6 °F 86% 29.60 in 7.0 mi West 11.5 mph 20.7 mph N/A   Overcast
5:15 AM 30.2 °F 20.2 °F 26.6 °F 86% 29.61 in 7.0 mi WSW 12.7 mph 20.7 mph N/A   Overcast
5:35 AM 30.2 °F 20.8 °F 26.6 °F 86% 29.61 in 7.0 mi West 11.5 mph 24.2 mph N/A   Overcast
5:55 AM 28.4 °F 21.2 °F 26.6 °F 93% 29.61 in 7.0 mi West 6.9 mph 24.2 mph N/A   Overcast
6:15 AM 28.4 °F 19.1 °F 26.6 °F 93% 29.62 in 10.0 mi West 10.4 mph 26.5 mph N/A   Overcast
6:35 AM 28.4 °F 17.5 °F 26.6 °F 93% 29.63 in 10.0 mi West 13.8 mph 26.5 mph N/A   Overcast
6:55 AM 28.4 °F 18.5 °F 26.6 °F 93% 29.65 in 7.0 mi West 11.5 mph 26.5 mph N/A   Overcast
7:15 AM 28.4 °F 16.6 °F 26.6 °F 93% 29.66 in 10.0 mi West 16.1 mph 24.2 mph N/A   Overcast
7:35 AM 28.4 °F 18.0 °F 26.6 °F 93% 29.68 in 10.0 mi West 12.7 mph 33.4 mph N/A   Overcast
7:55 AM 28.4 °F 18.0 °F 26.6 °F 93% 29.68 in 10.0 mi West 12.7 mph 20.7 mph N/A   Overcast
8:15 AM 28.4 °F 19.1 °F 26.6 °F 93% 29.71 in 10.0 mi West 10.4 mph 20.7 mph N/A   Overcast
8:35 AM 28.4 °F 18.0 °F 26.6 °F 93% 29.72 in 7.0 mi West 12.7 mph 21.9 mph N/A   Overcast
8:55 AM 28.4 °F 19.1 °F 26.6 °F 93% 29.74 in 5.0 mi West 10.4 mph 23.0 mph N/A   Overcast
9:15 AM 28.4 °F 20.4 °F 26.6 °F 93% 29.75 in 5.0 mi WSW 8.1 mph - N/A   Overcast
9:35 AM 28.4 °F 19.1 °F 26.6 °F 93% 29.77 in 7.0 mi West 10.4 mph 19.6 mph N/A   Overcast
9:55 AM 28.4 °F 21.2 °F 26.6 °F 93% 29.78 in 7.0 mi West 6.9 mph - N/A   Overcast
10:15 AM 28.4 °F 21.2 °F 26.6 °F 93% 29.79 in 5.0 mi West 6.9 mph - N/A   Overcast
10:35 AM 28.4 °F 20.4 °F 26.6 °F 93% 29.80 in 3.0 mi West 8.1 mph - N/A Snow Light Snow
10:55 AM 28.4 °F 20.4 °F 26.6 °F 93% 29.80 in 5.0 mi West 8.1 mph 18.4 mph N/A   Overcast
11:15 AM 28.4 °F 23.3 °F 26.6 °F 93% 29.81 in 5.0 mi West 4.6 mph 21.9 mph N/A   Overcast
11:35 AM 28.4 °F 19.1 °F 26.6 °F 93% 29.81 in 4.0 mi WSW 10.4 mph 23.0 mph N/A   Overcast
11:55 AM 28.4 °F 19.7 °F 26.6 °F 93% 29.80 in 5.0 mi WSW 9.2 mph 18.4 mph N/A   Overcast
12:15 PM 28.4 °F 18.5 °F 26.6 °F 93% 29.80 in 7.0 mi West 11.5 mph 17.3 mph N/A   Overcast
12:35 PM 28.4 °F 19.1 °F 26.6 °F 93% 29.81 in 7.0 mi West 10.4 mph 18.4 mph N/A   Overcast
12:55 PM 28.4 °F 19.7 °F 26.6 °F 93% 29.81 in 7.0 mi West 9.2 mph 23.0 mph N/A   Overcast
1:15 PM 28.4 °F 19.7 °F 26.6 °F 93% 29.81 in 7.0 mi West 9.2 mph 17.3 mph N/A Snow Light Snow
1:35 PM 28.4 °F 20.4 °F 26.6 °F 93% 29.82 in 10.0 mi West 8.1 mph - N/A   Overcast
1:55 PM 28.4 °F 19.7 °F 24.8 °F 86% 29.82 in 10.0 mi West 9.2 mph 25.3 mph N/A   Overcast
2:15 PM 28.4 °F 20.4 °F 24.8 °F 86% 29.82 in 10.0 mi West 8.1 mph 16.1 mph N/A   Overcast
2:35 PM 28.4 °F 21.2 °F 24.8 °F 86% 29.83 in 10.0 mi WSW 6.9 mph 23.0 mph N/A   Overcast
2:55 PM 28.4 °F 21.2 °F 24.8 °F 86% 29.84 in 10.0 mi WSW 6.9 mph - N/A   Overcast
3:15 PM 28.4 °F 20.4 °F 24.8 °F 86% 29.85 in 10.0 mi West 8.1 mph - N/A   Overcast
3:35 PM 30.2 °F 20.8 °F 24.8 °F 80% 29.85 in 10.0 mi WSW 11.5 mph 21.9 mph N/A   Overcast
3:55 PM 30.2 °F 21.9 °F 24.8 °F 80% 29.87 in 10.0 mi WSW 9.2 mph 19.6 mph N/A   Overcast
4:15 PM 30.2 °F 23.4 °F 24.8 °F 80% 29.88 in 10.0 mi WSW 6.9 mph 16.1 mph N/A   Overcast
4:35 PM 30.2 °F 24.3 °F 24.8 °F 80% 29.88 in 10.0 mi West 5.8 mph - N/A   Overcast
4:55 PM 30.2 °F 25.4 °F 24.8 °F 80% 29.88 in 10.0 mi WSW 4.6 mph - N/A   Overcast
5:15 PM 30.2 °F 23.4 °F 24.8 °F 80% 29.89 in 10.0 mi SW 6.9 mph - N/A   Overcast
5:35 PM 28.4 °F 23.3 °F 24.8 °F 86% 29.90 in 10.0 mi SW 4.6 mph 16.1 mph N/A   Overcast
5:55 PM 28.4 °F 23.3 °F 24.8 °F 86% 29.90 in 10.0 mi SW 4.6 mph - N/A   Mostly Cloudy
6:15 PM 28.4 °F 22.2 °F 24.8 °F 86% 29.90 in 10.0 mi SW 5.8 mph - N/A   Scattered Clouds
6:35 PM 28.4 °F 21.2 °F 24.8 °F 86% 29.92 in 10.0 mi SW 6.9 mph - N/A   Clear
6:55 PM 28.4 °F 19.1 °F 23.0 °F 80% 29.92 in 10.0 mi SSW 10.4 mph - N/A   Clear
7:15 PM 28.4 °F 20.4 °F 23.0 °F 80% 29.92 in 10.0 mi SW 8.1 mph - N/A   Clear
7:35 PM 28.4 °F 21.2 °F 23.0 °F 80% 29.92 in 10.0 mi SSW 6.9 mph - N/A   Clear
7:55 PM 28.4 °F 21.2 °F 23.0 °F 80% 29.92 in 10.0 mi SSW 6.9 mph - N/A   Clear
8:15 PM 28.4 °F 19.1 °F 24.8 °F 86% 29.92 in 10.0 mi SSW 10.4 mph 17.3 mph N/A   Clear
8:35 PM 28.4 °F 20.4 °F 24.8 °F 86% 29.92 in 10.0 mi SW 8.1 mph - N/A   Clear
8:55 PM 26.6 °F 16.2 °F 24.8 °F 93% 29.92 in 10.0 mi SSW 11.5 mph - N/A   Clear
9:15 PM 28.4 °F 18.5 °F 24.8 °F 86% 29.92 in 10.0 mi SSW 11.5 mph - N/A   Clear
9:35 PM 28.4 °F 18.5 °F 24.8 °F 86% 29.92 in 10.0 mi SSW 11.5 mph - N/A   Clear
9:55 PM 26.6 °F 18.2 °F 24.8 °F 93% 29.92 in 10.0 mi SSW 8.1 mph - N/A   Clear
10:15 PM 28.4 °F 18.0 °F 24.8 °F 86% 29.92 in 10.0 mi SSW 12.7 mph 17.3 mph N/A   Clear
10:35 PM 26.6 °F 18.2 °F 24.8 °F 93% 29.91 in 10.0 mi SSW 8.1 mph - N/A   Clear
10:55 PM 28.4 °F 19.7 °F 24.8 °F 86% 29.91 in 10.0 mi SSW 9.2 mph - N/A   Clear
11:15 PM 28.4 °F 19.7 °F 26.6 °F 93% 29.90 in 10.0 mi SSW 9.2 mph - N/A   Clear
11:35 PM 28.4 °F 20.4 °F 26.6 °F 93% 29.91 in 10.0 mi SW 8.1 mph - N/A   Clear
11:55 PM 30.2 °F 20.8 °F 26.6 °F 86% 29.91 in 10.0 mi SSW 11.5 mph 17.3 mph N/A   Clear